ZQ-2E R/B

基本信息
目录编号:
69095
目录名称:
ZQ-2E R/B
国际标识:
2026-105A
轨道中心:
EARTH
物体状态:
在轨
发射日期:
2026-05-13 UTC
国别:
中国 (CN)
轨道信息
数据来源: 国际轨道数据
星历时间: 2026-06-24T15:39:28+0800
半长轴: 6888.175km
偏心率: 0.0441543
轨道倾角: 88.970°
近地点辐角: 270.991°
升交点赤经: 193.291°
平近点角: 84.079°
近地点: 205.895km
远地点: 814.181km
周期: 94.823分钟
每日圈数: 15.186109
详细信息
发射场:
JSC
轨道高度:
LEO
数据来源:
AOE Integration Group
参考系:
TEME
时间系统:
UTC
历元类型:
SGP4
2D轨道图
3D轨道图
轨道高度分析图
轨道倾角分析图
轨道综合分析图
查看轨道综合分析图